Location: Casa Rossa
(45.2389°N, 12.2056°E)
Time: 23:41:03
(UTC+00:00)

NOSS 3-2 (A) - Pass Details

Date: 14 July 2020
Orbit: 798 x 1410 km, 63.4° (Epoch: 12 August)

Event Time Altitude Azimuth Distance (km) Brightness Sun altitude
Exits shadow 02:21:27 - 190° (S) 2,528 5.2 -11.1°
Reaches altitude 10° 02:21:42 10° 189° (S) 2,439 5.1 -11.1°
Maximum altitude 02:27:00 45° 117° (ESE) 1,199 4.1 -10.4°
Drops below altitude 10° 02:32:59 10° 47° (NE) 2,753 7.5 -9.7°
Sets 02:35:51 0° 42° (NE) 3,803 9.0 -9.3°
